Time,TemperatureF,DewpointF,PressureIn,WindDirection,WindDirectionDegrees,WindSpeedMPH,WindSpeedGustMPH,Humidity,HourlyPrecipIn,Conditions,Clouds,dailyrainin,SoftwareType,DateUTC
2013-02-04 00:02:00,49.0,32.0,29.79,SW,234,4.0,15.0,51,0.00,,,0.00,,2013-02-04 06:02:00,
2013-02-04 00:11:00,49.0,32.0,29.79,SW,234,4.0,15.0,51,0.00,,,0.00,,2013-02-04 06:11:00,
2013-02-04 00:21:00,49.0,32.0,29.78,SSW,194,1.0,10.0,51,0.00,,,0.00,,2013-02-04 06:21:00,
2013-02-04 00:32:00,49.0,32.0,29.77,SW,217,3.0,12.0,52,0.00,,,0.00,,2013-02-04 06:32:00,
2013-02-04 00:42:00,49.0,32.0,29.77,SW,217,3.0,12.0,52,0.00,,,0.00,,2013-02-04 06:42:00,
2013-02-04 00:51:00,49.0,32.0,29.76,South,180,1.0,9.0,52,0.00,,,0.00,,2013-02-04 06:51:00,
2013-02-04 01:02:00,49.0,33.0,29.77,SE,139,1.0,10.0,53,0.00,,,0.00,,2013-02-04 07:02:00,
2013-02-04 01:11:00,48.0,32.0,29.77,South,169,3.0,7.0,53,0.00,,,0.00,,2013-02-04 07:11:00,
2013-02-04 01:21:00,48.0,32.0,29.77,South,169,3.0,7.0,53,0.00,,,0.00,,2013-02-04 07:21:00,
2013-02-04 01:32:00,48.0,33.0,29.77,SW,229,1.0,10.0,55,0.00,,,0.00,,2013-02-04 07:32:00,
2013-02-04 01:42:00,48.0,33.0,29.77,SW,229,1.0,10.0,55,0.00,,,0.00,,2013-02-04 07:42:00,
2013-02-04 01:52:00,47.0,32.0,29.79,WSW,249,0.0,2.0,55,0.00,,,0.00,,2013-02-04 07:52:00,
2013-02-04 02:01:00,46.0,32.0,29.78,West,260,0.0,1.0,58,0.00,,,0.00,,2013-02-04 08:01:00,
2013-02-04 02:11:00,46.0,32.0,29.78,West,260,0.0,1.0,58,0.00,,,0.00,,2013-02-04 08:11:00,
2013-02-04 02:21:00,45.0,32.0,29.78,SW,214,0.0,2.0,60,0.00,,,0.00,,2013-02-04 08:21:00,
2013-02-04 02:31:00,44.0,31.0,29.77,South,187,0.0,1.0,61,0.00,,,0.00,,2013-02-04 08:31:00,
2013-02-04 02:42:00,44.0,31.0,29.77,South,187,0.0,1.0,61,0.00,,,0.00,,2013-02-04 08:42:00,
2013-02-04 02:52:00,44.0,32.0,29.76,South,176,0.0,2.0,63,0.00,,,0.00,,2013-02-04 08:52:00,
2013-02-04 03:02:00,43.0,32.0,29.78,South,176,0.0,0.0,64,0.00,,,0.00,,2013-02-04 09:02:00,
2013-02-04 03:11:00,42.0,31.0,29.78,South,176,0.0,0.0,64,0.00,,,0.00,,2013-02-04 09:11:00,
2013-02-04 03:21:00,42.0,31.0,29.78,South,176,0.0,0.0,64,0.00,,,0.00,,2013-02-04 09:21:00,
2013-02-04 03:31:00,40.0,30.0,29.78,South,176,0.0,0.0,67,0.00,,,0.00,,2013-02-04 09:31:00,
2013-02-04 03:42:00,40.0,30.0,29.78,South,176,0.0,0.0,67,0.00,,,0.00,,2013-02-04 09:42:00,
2013-02-04 03:51:00,38.0,29.0,29.78,South,176,0.0,0.0,69,0.00,,,0.00,,2013-02-04 09:51:00,
2013-02-04 04:01:00,36.0,29.0,29.78,South,177,0.0,0.0,74,0.00,,,0.00,,2013-02-04 10:01:00,
2013-02-04 04:11:00,36.0,29.0,29.78,South,177,0.0,0.0,74,0.00,,,0.00,,2013-02-04 10:11:00,
2013-02-04 04:21:00,35.0,28.0,29.78,South,176,0.0,0.0,74,0.00,,,0.00,,2013-02-04 10:21:00,
2013-02-04 04:32:00,34.0,28.0,29.79,South,176,0.0,0.0,77,0.00,,,0.00,,2013-02-04 10:32:00,
2013-02-04 04:41:00,34.0,28.0,29.79,South,176,0.0,0.0,77,0.00,,,0.00,,2013-02-04 10:41:00,
2013-02-04 04:51:00,33.0,27.0,29.79,South,176,0.0,0.0,79,0.00,,,0.00,,2013-02-04 10:51:00,
2013-02-04 05:02:00,32.0,26.0,29.80,South,177,0.0,0.0,78,0.00,,,0.00,,2013-02-04 11:02:00,
2013-02-04 05:22:00,32.0,27.0,29.81,WNW,287,0.0,1.0,80,0.00,,,0.00,,2013-02-04 11:22:00,
2013-02-04 05:32:00,32.0,27.0,29.82,WNW,287,0.0,0.0,81,0.00,,,0.00,,2013-02-04 11:32:00,
2013-02-04 05:42:00,32.0,27.0,29.82,WNW,287,0.0,0.0,81,0.00,,,0.00,,2013-02-04 11:42:00,
2013-02-04 05:52:00,32.0,27.0,29.83,WNW,288,0.0,0.0,81,0.00,,,0.00,,2013-02-04 11:52:00,
2013-02-04 06:02:00,32.0,27.0,29.83,WNW,288,0.0,0.0,81,0.00,,,0.00,,2013-02-04 12:02:00,
2013-02-04 06:12:00,32.0,27.0,29.83,WNW,288,0.0,0.0,81,0.00,,,0.00,,2013-02-04 12:12:00,
2013-02-04 06:22:00,32.0,27.0,29.83,WNW,288,0.0,0.0,82,0.00,,,0.00,,2013-02-04 12:22:00,
2013-02-04 06:32:00,32.0,27.0,29.83,North,360,0.0,0.0,80,0.00,,,0.00,,2013-02-04 12:32:00,
2013-02-04 06:42:00,32.0,27.0,29.83,North,360,0.0,0.0,80,0.00,,,0.00,,2013-02-04 12:42:00,
2013-02-04 06:52:00,32.0,27.0,29.85,North,360,0.0,0.0,80,0.00,,,0.00,,2013-02-04 12:52:00,
2013-02-04 07:02:00,32.0,27.0,29.86,North,360,0.0,0.0,81,0.00,,,0.00,,2013-02-04 13:02:00,
2013-02-04 07:12:00,32.0,27.0,29.86,North,360,0.0,0.0,81,0.00,,,0.00,,2013-02-04 13:12:00,
2013-02-04 07:21:00,32.0,27.0,29.86,North,360,0.0,0.0,81,0.00,,,0.00,,2013-02-04 13:21:00,
2013-02-04 07:33:00,32.0,26.0,29.88,North,360,0.0,0.0,79,0.00,,,0.00,,2013-02-04 13:33:00,
2013-02-04 07:42:00,32.0,26.0,29.88,North,360,0.0,0.0,79,0.00,,,0.00,,2013-02-04 13:42:00,
2013-02-04 07:51:00,32.0,27.0,29.89,North,351,0.0,1.0,80,0.00,,,0.00,,2013-02-04 13:51:00,
2013-02-04 08:03:00,32.0,26.0,29.90,North,351,0.0,1.0,79,0.00,,,0.00,,2013-02-04 14:03:00,
2013-02-04 08:12:00,32.0,26.0,29.90,North,351,0.0,1.0,79,0.00,,,0.00,,2013-02-04 14:12:00,
2013-02-04 08:22:00,32.0,26.0,29.90,North,351,0.0,0.0,79,0.00,,,0.00,,2013-02-04 14:22:00,
2013-02-04 08:32:00,33.0,27.0,29.91,North,351,0.0,3.0,79,0.00,,,0.00,,2013-02-04 14:32:00,
2013-02-04 08:42:00,33.0,27.0,29.91,North,351,0.0,3.0,79,0.00,,,0.00,,2013-02-04 14:42:00,
2013-02-04 08:52:00,33.0,27.0,29.91,NNW,336,0.0,2.0,78,0.00,,,0.00,,2013-02-04 14:52:00,
2013-02-04 09:03:00,34.0,28.0,29.91,NNW,336,0.0,2.0,77,0.00,,,0.00,,2013-02-04 15:03:00,
2013-02-04 09:12:00,34.0,28.0,29.91,NNW,336,0.0,2.0,77,0.00,,,0.00,,2013-02-04 15:12:00,
2013-02-04 09:23:00,36.0,29.0,29.92,North,10,1.0,4.0,77,0.00,,,0.00,,2013-02-04 15:23:00,
2013-02-04 09:33:00,37.0,30.0,29.92,North,350,2.0,4.0,75,0.00,,,0.00,,2013-02-04 15:33:00,
2013-02-04 09:43:00,37.0,30.0,29.92,North,350,2.0,4.0,75,0.00,,,0.00,,2013-02-04 15:43:00,
2013-02-04 09:52:00,39.0,31.0,29.92,NNE,15,0.0,3.0,73,0.00,,,0.00,,2013-02-04 15:52:00,
2013-02-04 10:03:00,41.0,32.0,29.93,NNW,333,1.0,6.0,69,0.00,,,0.00,,2013-02-04 16:03:00,
2013-02-04 10:11:00,41.0,32.0,29.93,NNW,333,1.0,6.0,69,0.00,,,0.00,,2013-02-04 16:11:00,
2013-02-04 10:22:00,42.0,32.0,29.93,NNW,327,1.0,5.0,67,0.00,,,0.00,,2013-02-04 16:22:00,
2013-02-04 10:33:00,43.0,32.0,29.93,North,351,1.0,7.0,66,0.00,,,0.00,,2013-02-04 16:33:00,
2013-02-04 10:42:00,43.0,32.0,29.93,North,351,1.0,7.0,66,0.00,,,0.00,,2013-02-04 16:42:00,
2013-02-04 10:51:00,43.0,32.0,29.94,ENE,78,1.0,9.0,64,0.00,,,0.00,,2013-02-04 16:51:00,
2013-02-04 11:02:00,44.0,32.0,29.94,ENE,61,1.0,7.0,62,0.00,,,0.00,,2013-02-04 17:02:00,
2013-02-04 11:11:00,44.0,32.0,29.94,ENE,61,1.0,7.0,62,0.00,,,0.00,,2013-02-04 17:11:00,
2013-02-04 11:21:00,44.0,32.0,29.95,NNE,16,2.0,6.0,62,0.00,,,0.00,,2013-02-04 17:21:00,
2013-02-04 11:32:00,45.0,32.0,29.95,NE,51,2.0,6.0,61,0.00,,,0.00,,2013-02-04 17:32:00,
2013-02-04 11:42:00,45.0,32.0,29.95,NE,51,2.0,6.0,61,0.00,,,0.00,,2013-02-04 17:42:00,
2013-02-04 11:51:00,46.0,33.0,29.95,North,350,1.0,7.0,61,0.00,,,0.00,,2013-02-04 17:51:00,
2013-02-04 12:03:00,47.0,33.0,29.96,NNW,340,2.0,7.0,58,0.00,,,0.00,,2013-02-04 18:03:00,
2013-02-04 12:11:00,47.0,33.0,29.96,NNW,340,2.0,7.0,58,0.00,,,0.00,,2013-02-04 18:11:00,
2013-02-04 12:22:00,47.0,33.0,29.95,NE,53,1.0,12.0,58,0.00,,,0.00,,2013-02-04 18:22:00,
2013-02-04 12:32:00,47.0,32.0,29.95,North,351,3.0,9.0,56,0.00,,,0.00,,2013-02-04 18:32:00,
2013-02-04 12:42:00,47.0,32.0,29.95,North,351,3.0,9.0,56,0.00,,,0.00,,2013-02-04 18:42:00,
2013-02-04 12:52:00,48.0,33.0,29.95,ENE,61,0.0,4.0,55,0.00,,,0.00,,2013-02-04 18:52:00,
2013-02-04 13:02:00,48.0,32.0,29.94,ENE,70,1.0,5.0,54,0.00,,,0.00,,2013-02-04 19:02:00,
2013-02-04 13:11:00,48.0,32.0,29.94,ENE,70,1.0,5.0,54,0.00,,,0.00,,2013-02-04 19:11:00,
2013-02-04 13:22:00,48.0,34.0,29.94,NNE,31,1.0,6.0,57,0.00,,,0.00,,2013-02-04 19:22:00,
2013-02-04 13:32:00,49.0,34.0,29.94,NE,39,0.0,9.0,55,0.00,,,0.00,,2013-02-04 19:32:00,
2013-02-04 13:42:00,49.0,34.0,29.94,NE,39,0.0,9.0,55,0.00,,,0.00,,2013-02-04 19:42:00,
2013-02-04 13:51:00,49.0,32.0,29.94,NW,307,2.0,4.0,52,0.00,,,0.00,,2013-02-04 19:51:00,
2013-02-04 14:02:00,50.0,34.0,29.93,NNE,18,1.0,6.0,53,0.00,,,0.00,,2013-02-04 20:02:00,
2013-02-04 14:12:00,50.0,34.0,29.93,NNE,18,1.0,6.0,53,0.00,,,0.00,,2013-02-04 20:12:00,
2013-02-04 14:21:00,50.0,34.0,29.92,NNW,344,1.0,4.0,53,0.00,,,0.00,,2013-02-04 20:21:00,
2013-02-04 14:32:00,49.0,33.0,29.92,NE,51,1.0,9.0,53,0.00,,,0.00,,2013-02-04 20:32:00,
2013-02-04 14:42:00,49.0,33.0,29.92,NE,51,1.0,9.0,53,0.00,,,0.00,,2013-02-04 20:42:00,
2013-02-04 14:52:00,50.0,33.0,29.92,NNE,24,0.0,4.0,52,0.00,,,0.00,,2013-02-04 20:52:00,
2013-02-04 15:02:00,50.0,34.0,29.91,NNW,329,1.0,9.0,53,0.00,,,0.00,,2013-02-04 21:02:00,
2013-02-04 15:11:00,50.0,34.0,29.91,NNW,329,1.0,9.0,53,0.00,,,0.00,,2013-02-04 21:11:00,
2013-02-04 15:22:00,48.0,33.0,29.92,NW,309,3.0,7.0,56,0.00,,,0.00,,2013-02-04 21:22:00,
2013-02-04 15:32:00,48.0,34.0,29.92,NNW,330,3.0,8.0,57,0.00,,,0.00,,2013-02-04 21:32:00,
2013-02-04 15:42:00,48.0,34.0,29.92,NNW,330,3.0,8.0,57,0.00,,,0.00,,2013-02-04 21:42:00,
2013-02-04 15:51:00,47.0,33.0,29.91,WNW,303,1.0,5.0,58,0.00,,,0.00,,2013-02-04 21:51:00,
2013-02-04 16:02:00,48.0,33.0,29.91,NW,311,1.0,5.0,56,0.00,,,0.00,,2013-02-04 22:02:00,
2013-02-04 16:12:00,48.0,33.0,29.91,NW,311,1.0,5.0,56,0.00,,,0.00,,2013-02-04 22:12:00,
2013-02-04 16:21:00,47.0,33.0,29.91,NNW,344,2.0,5.0,58,0.00,,,0.00,,2013-02-04 22:21:00,
2013-02-04 16:32:00,48.0,34.0,29.92,North,351,1.0,5.0,57,0.00,,,0.00,,2013-02-04 22:32:00,
2013-02-04 16:42:00,48.0,34.0,29.92,North,351,1.0,5.0,57,0.00,,,0.00,,2013-02-04 22:42:00,
2013-02-04 16:51:00,48.0,33.0,29.91,NNW,338,2.0,4.0,56,0.00,,,0.00,,2013-02-04 22:51:00,
2013-02-04 17:01:00,47.0,33.0,29.91,NE,50,0.0,6.0,58,0.00,,,0.00,,2013-02-04 23:01:00,
2013-02-04 17:11:00,47.0,33.0,29.91,NE,50,0.0,6.0,58,0.00,,,0.00,,2013-02-04 23:11:00,
2013-02-04 17:21:00,46.0,32.0,29.90,ESE,105,0.0,6.0,59,0.00,,,0.00,,2013-02-04 23:21:00,
2013-02-04 17:32:00,45.0,32.0,29.91,ENE,60,2.0,5.0,60,0.00,,,0.00,,2013-02-04 23:32:00,
2013-02-04 17:42:00,45.0,32.0,29.91,ENE,60,2.0,5.0,60,0.00,,,0.00,,2013-02-04 23:42:00,
2013-02-04 17:52:00,44.0,32.0,29.90,ENE,61,1.0,3.0,62,0.00,,,0.00,,2013-02-04 23:52:00,
2013-02-04 18:01:00,41.0,30.0,29.89,East,96,0.0,2.0,64,0.00,,,0.00,,2013-02-05 00:01:00,
2013-02-04 18:11:00,41.0,30.0,29.89,East,96,0.0,2.0,64,0.00,,,0.00,,2013-02-05 00:11:00,
2013-02-04 18:21:00,39.0,29.0,29.90,East,86,0.0,0.0,66,0.00,,,0.00,,2013-02-05 00:21:00,
2013-02-04 18:31:00,38.0,28.0,29.90,East,86,0.0,0.0,68,0.00,,,0.00,,2013-02-05 00:31:00,
2013-02-04 18:42:00,38.0,28.0,29.90,East,86,0.0,0.0,68,0.00,,,0.00,,2013-02-05 00:42:00,
2013-02-04 18:51:00,36.0,28.0,29.91,East,86,0.0,0.0,71,0.00,,,0.00,,2013-02-05 00:51:00,
2013-02-04 19:02:00,35.0,27.0,29.92,East,86,0.0,0.0,72,0.00,,,0.00,,2013-02-05 01:02:00,
2013-02-04 19:11:00,35.0,27.0,29.92,East,86,0.0,0.0,72,0.00,,,0.00,,2013-02-05 01:11:00,
2013-02-04 19:22:00,34.0,27.0,29.93,East,86,0.0,1.0,75,0.00,,,0.00,,2013-02-05 01:22:00,
2013-02-04 19:32:00,33.0,26.0,29.94,East,86,0.0,0.0,76,0.00,,,0.00,,2013-02-05 01:32:00,
2013-02-04 19:42:00,33.0,26.0,29.94,East,86,0.0,0.0,76,0.00,,,0.00,,2013-02-05 01:42:00,
2013-02-04 19:52:00,32.0,26.0,29.95,East,86,0.0,0.0,78,0.00,,,0.00,,2013-02-05 01:52:00,
2013-02-04 20:01:00,30.0,24.0,29.95,East,86,0.0,0.0,79,0.00,,,0.00,,2013-02-05 02:01:00,
2013-02-04 20:22:00,30.0,25.0,29.95,SE,146,0.0,1.0,81,0.00,,,0.00,,2013-02-05 02:22:00,
2013-02-04 20:32:00,29.0,24.0,29.95,SE,146,0.0,0.0,81,0.00,,,0.00,,2013-02-05 02:32:00,
2013-02-04 20:42:00,29.0,24.0,29.95,SE,146,0.0,0.0,81,0.00,,,0.00,,2013-02-05 02:42:00,
2013-02-04 20:52:00,29.0,25.0,29.96,SE,146,0.0,0.0,83,0.00,,,0.00,,2013-02-05 02:52:00,
2013-02-04 21:02:00,28.0,24.0,29.96,SE,146,0.0,0.0,83,0.00,,,0.00,,2013-02-05 03:02:00,
2013-02-04 21:11:00,28.0,24.0,29.96,SE,146,0.0,0.0,83,0.00,,,0.00,,2013-02-05 03:11:00,
2013-02-04 21:21:00,28.0,24.0,29.95,SE,146,0.0,0.0,83,0.00,,,0.00,,2013-02-05 03:21:00,
2013-02-04 21:32:00,27.0,23.0,29.95,SE,146,0.0,0.0,84,0.00,,,0.00,,2013-02-05 03:32:00,
2013-02-04 21:42:00,27.0,23.0,29.95,SE,146,0.0,0.0,84,0.00,,,0.00,,2013-02-05 03:42:00,
2013-02-04 21:51:00,28.0,24.0,29.94,SSE,164,4.0,5.0,86,0.00,,,0.00,,2013-02-05 03:51:00,
2013-02-04 22:01:00,28.0,24.0,29.94,SSE,167,1.0,3.0,85,0.00,,,0.00,,2013-02-05 04:01:00,
2013-02-04 22:11:00,28.0,24.0,29.94,SSE,167,1.0,3.0,85,0.00,,,0.00,,2013-02-05 04:11:00,
2013-02-04 22:21:00,28.0,24.0,29.94,SSE,150,2.0,4.0,85,0.00,,,0.00,,2013-02-05 04:21:00,
2013-02-04 22:32:00,30.0,26.0,29.93,SSE,159,2.0,7.0,85,0.00,,,0.00,,2013-02-05 04:32:00,
2013-02-04 22:42:00,30.0,26.0,29.93,SSE,159,2.0,7.0,85,0.00,,,0.00,,2013-02-05 04:42:00,
2013-02-04 22:52:00,30.0,26.0,29.93,SSE,154,3.0,5.0,85,0.00,,,0.00,,2013-02-05 04:52:00,
2013-02-04 23:02:00,31.0,26.0,29.93,South,175,3.0,6.0,83,0.00,,,0.00,,2013-02-05 05:02:00,
2013-02-04 23:11:00,31.0,26.0,29.93,South,175,3.0,6.0,83,0.00,,,0.00,,2013-02-05 05:11:00,
2013-02-04 23:21:00,30.0,25.0,29.92,SSE,161,5.0,6.0,82,0.00,,,0.00,,2013-02-05 05:21:00,
2013-02-04 23:32:00,30.0,25.0,29.92,South,182,5.0,9.0,83,0.00,,,0.00,,2013-02-05 05:32:00,
2013-02-04 23:42:00,30.0,25.0,29.92,South,182,5.0,9.0,83,0.00,,,0.00,,2013-02-05 05:42:00,
2013-02-04 23:52:00,30.0,25.0,29.88,SSE,160,4.0,6.0,83,0.00,,,0.00,,2013-02-05 05:52:00,